TimeCET,TemperatureF,Dew PointF,Humidity,Sea Level PressureIn,VisibilityMPH,Wind Direction,Wind SpeedMPH,Gust SpeedMPH,PrecipitationIn,Events,Conditions,WindDirDegrees,DateUTC
12:00 AM,33.8,26.6,75,29.71,6.2,ESE,9.2,-,N/A,Snow,Light Snow,120,2013-03-28 23:00:00
12:30 AM,32.0,28.4,87,29.71,5.0,ESE,10.4,-,N/A,Snow,Light Snow,120,2013-03-28 23:30:00
1:00 AM,33,27,72,29.78,6,ESE,8.9,,,Snow,Light Snow,120,2013-03-29 00:00:00
1:00 AM,32.0,26.6,80,29.71,6.2,SE,6.9,-,N/A,,Overcast,130,2013-03-29 00:00:00
1:30 AM,32.0,26.6,80,29.71,6.2,SE,9.2,-,N/A,Snow,Light Snow,140,2013-03-29 00:30:00
1:38 AM,32.0,26.6,80,29.71,2.5,SE,8.1,-,N/A,Snow,Light Snow,140,2013-03-29 00:38:00
1:46 AM,32.0,28.4,87,29.71,1.6,SE,8.1,-,N/A,Snow,Snow,140,2013-03-29 00:46:00
2:00 AM,32.0,28.4,87,29.68,1.9,SE,8.1,-,N/A,Snow,Light Snow,140,2013-03-29 01:00:00
2:30 AM,30.2,28.4,93,29.68,1.9,ESE,9.2,-,N/A,Snow,Light Snow,120,2013-03-29 01:30:00
3:00 AM,30.2,28.4,93,29.68,1.5,SE,6.9,-,N/A,Snow,Snow,130,2013-03-29 02:00:00
3:30 AM,30.2,30.2,100,29.65,1.1,SSE,5.8,-,N/A,Snow,Snow,150,2013-03-29 02:30:00
4:00 AM,30.2,30.2,100,29.65,2.2,SSE,5.8,-,N/A,Snow,Light Snow,150,2013-03-29 03:00:00
4:30 AM,30.2,30.2,100,29.65,2.8,SSE,5.8,-,N/A,Snow,Light Snow,150,2013-03-29 03:30:00
5:00 AM,30.2,28.4,93,29.65,3.1,South,8.1,-,N/A,,Overcast,170,2013-03-29 04:00:00
5:30 AM,30.2,30.2,100,29.65,3.1,SSE,4.6,-,N/A,,Overcast,160,2013-03-29 04:30:00
5:40 AM,30.2,30.2,100,29.65,2.2,SE,6.9,-,N/A,,Overcast,140,2013-03-29 04:40:00
5:50 AM,30.2,30.2,100,29.65,-9999.0,SSE,5.8,-,N/A,,Overcast,150,2013-03-29 04:50:00
6:00 AM,30.2,30.2,100,29.65,1.9,SSE,5.8,-,N/A,,Overcast,150,2013-03-29 05:00:00
6:30 AM,30.2,30.2,100,29.65,1.7,SSE,6.9,-,N/A,Snow,Light Snow,160,2013-03-29 05:30:00
7:00 AM,31,30,93,29.72,2,SSW,6.7,,,Snow,Light Snow,200,2013-03-29 06:00:00
7:00 AM,30.2,30.2,100,29.65,2.2,SSW,6.9,-,N/A,,Mostly Cloudy,200,2013-03-29 06:00:00
7:30 AM,30.2,30.2,100,29.65,2.5,SSW,6.9,-,N/A,,Mostly Cloudy,200,2013-03-29 06:30:00
8:00 AM,30.2,28.4,93,29.65,-9999.0,SSW,6.9,-,N/A,,Partly Cloudy,210,2013-03-29 07:00:00
8:30 AM,33.8,30.2,87,29.65,3.1,SW,15.0,-,N/A,,Partly Cloudy,220,2013-03-29 07:30:00
9:00 AM,33.8,30.2,87,29.68,3.7,SW,13.8,-,N/A,,Partly Cloudy,220,2013-03-29 08:00:00
9:30 AM,35.6,30.2,81,29.68,3.7,SW,15.0,-,N/A,,Scattered Clouds,230,2013-03-29 08:30:00
10:00 AM,35.6,28.4,75,29.68,4.3,SW,13.8,-,N/A,,Partly Cloudy,220,2013-03-29 09:00:00
10:30 AM,37.4,30.2,75,29.68,5.6,SW,18.4,-,N/A,,Partly Cloudy,230,2013-03-29 09:30:00
10:36 AM,35.6,28.4,75,29.68,5.0,WSW,19.6,-,N/A,Rain-Snow,Light Rain Showers,240,2013-03-29 09:36:00
10:41 AM,35.6,28.4,75,29.68,2.5,WSW,17.3,-,N/A,Rain-Snow,Rain Showers,250,2013-03-29 09:41:00
10:43 AM,35.6,28.4,75,29.68,1.9,WSW,17.3,-,N/A,Snow,Snow Showers,250,2013-03-29 09:43:00
10:49 AM,35.6,28.4,75,29.68,2.5,WSW,16.1,-,N/A,Snow,Light Snow Showers,250,2013-03-29 09:49:00
10:53 AM,37.4,32.0,81,29.68,3.1,WSW,17.3,-,N/A,Snow,Light Snow Showers,250,2013-03-29 09:53:00
11:00 AM,37.4,32.0,81,29.68,4.3,West,17.3,-,N/A,,Scattered Clouds,260,2013-03-29 10:00:00
11:30 AM,37.4,30.2,75,29.68,6.2,WSW,20.7,-,N/A,,Mostly Cloudy,240,2013-03-29 10:30:00
12:00 PM,35.6,26.6,70,29.68,6.2,WSW,18.4,-,N/A,,Scattered Clouds,250,2013-03-29 11:00:00
12:30 PM,39.2,24.8,56,29.68,6.2,WSW,24.2,-,N/A,,Partly Cloudy,240,2013-03-29 11:30:00
1:00 PM,38,25,47,29.73,9,WSW,17.9,,,,Partly Cloudy,250,2013-03-29 12:00:00
1:00 PM,37.4,24.8,60,29.68,6.2,WSW,17.3,-,N/A,,Mostly Cloudy,250,2013-03-29 12:00:00
1:30 PM,39.2,24.8,56,29.68,6.2,West,15.0,-,N/A,,Mostly Cloudy,260,2013-03-29 12:30:00
2:00 PM,37.4,24.8,60,29.68,6.2,West,13.8,-,N/A,,Mostly Cloudy,260,2013-03-29 13:00:00
2:30 PM,39.2,24.8,56,29.65,6.2,WSW,18.4,-,N/A,,Mostly Cloudy,250,2013-03-29 13:30:00
3:00 PM,39.2,24.8,56,29.65,6.2,West,13.8,-,N/A,,Mostly Cloudy,270,2013-03-29 14:00:00
3:30 PM,37.4,23.0,56,29.65,6.2,West,18.4,-,N/A,,Mostly Cloudy,270,2013-03-29 14:30:00
4:00 PM,37.4,21.2,52,29.65,6.2,West,11.5,-,N/A,,Mostly Cloudy,280,2013-03-29 15:00:00
4:30 PM,37.4,23.0,56,29.65,6.2,West,12.7,-,N/A,,Mostly Cloudy,280,2013-03-29 15:30:00
5:00 PM,37.4,23.0,56,29.65,6.2,WSW,10.4,-,N/A,,Mostly Cloudy,250,2013-03-29 16:00:00
5:30 PM,35.6,23.0,60,29.65,6.2,West,8.1,-,N/A,,Mostly Cloudy,270,2013-03-29 16:30:00
6:00 PM,35.6,24.8,65,29.68,6.2,West,8.1,-,N/A,,Mostly Cloudy,270,2013-03-29 17:00:00
6:30 PM,33.8,23.0,65,29.68,5.6,West,8.1,-,N/A,,Unknown,270,2013-03-29 17:30:00
7:00 PM,33,25,63,29.75,5,West,6.7,,,,Mist,260,2013-03-29 18:00:00
7:00 PM,32.0,24.8,75,29.68,5.0,West,6.9,-,N/A,,Mostly Cloudy,260,2013-03-29 18:00:00
7:30 PM,32.0,24.8,75,29.68,5.0,WSW,6.9,-,N/A,,Mostly Cloudy,250,2013-03-29 18:30:00
8:00 PM,33.8,24.8,70,29.68,5.0,West,5.8,-,N/A,,Mostly Cloudy,260,2013-03-29 19:00:00
8:30 PM,33.8,24.8,70,29.68,5.0,West,5.8,-,N/A,,Mostly Cloudy,260,2013-03-29 19:30:00
9:00 PM,32.0,24.8,75,29.71,4.3,NNW,4.6,-,N/A,,Mostly Cloudy,330,2013-03-29 20:00:00
9:30 PM,32.0,24.8,75,29.71,4.3,North,2.3,-,N/A,,Mostly Cloudy,350,2013-03-29 20:30:00
10:01 PM,32.0,24.8,75,29.71,4.3,North,2.3,-,N/A,,Unknown,350,2013-03-29 21:01:00
10:30 PM,32.0,24.8,75,29.71,4.3,North,2.3,-,N/A,,Partly Cloudy,360,2013-03-29 21:30:00
11:00 PM,30.2,23.0,75,29.71,4.3,NNE,2.3,-,N/A,,Partly Cloudy,30,2013-03-29 22:00:00
11:30 PM,30.2,24.8,80,29.68,4.3,ENE,3.5,-,N/A,,Unknown,60,2013-03-29 22:30:00